Regional Weather Roundup
Issued by NWS Portland, ME

Current Version | Previous Version | Text Only | Print | Product List | Glossary Off
Versions: 1 2 3 4 5 6 7 8 9 10 11 12 13 14 15 16 17 18 19 20 21 22 23 24 25 26 27 28 29 30 31 32 33 34 35 36 37 38 39 40 41 42 43 44 45 46 47 48 49 50
000 ASUS41 KGYX 250110 RWRGYX WEATHER ROUNDUP FOR MAINE AND NEW HAMPSHIRE NATIONAL WEATHER SERVICE GRAY ME 900 PM EDT MON SEP 24 2018 MEZ002-005-006-010-012-015-018-020-021-024-026-027-029-250200- MAINE CITY SKY/WX TMP DP RH WIND PRES REMARKS PORTLAND FAIR 47 38 71 CALM 30.66R SANFORD FAIR 38 37 97 SW3 30.66R BAR HARBOR FAIR 39 36 89 CALM 30.68R WISCASSET FAIR 40 38 93 CALM 30.68R ROCKLAND FAIR 39 37 92 CALM 30.67S FRYEBURG FAIR 39 38 96 CALM 30.65R LEWISTONAUBURN FAIR 41 38 89 CALM 30.66R AUGUSTA FAIR 45 35 68 CALM 30.67R WATERVILLE FAIR 42 35 76 CALM 30.64R BANGOR FAIR 42 33 70 CALM 30.66S GREENVILLE N/A 42 21 43 SE6 30.60S MILLINOCKET FAIR 37 32 82 CALM 30.66F HOULTON FAIR 31 30 96 CALM 30.64F PRESQUE ISLE FAIR 34 31 88 CALM 30.65S FRENCHVILLE FAIR 46 27 47 SE5 30.62S CARIBOU FAIR 39 29 67 CALM 30.63S $$ NHZ002-005-008-009-011-012-014-250200- NEW HAMPSHIRE CITY SKY/WX TMP DP RH WIND PRES REMARKS PORTSMOUTH CLOUDY 49 38 65 NE5 30.63R ROCHESTER FAIR 41 40 96 NW3 30.64R NASHUA FAIR 48 42 80 VRB3 30.64R MANCHESTER CLOUDY 49 39 68 NE6 30.62R CONCORD FAIR 47 38 71 E5 30.64R LACONIA FAIR 43 40 89 CALM 30.64R PLYMOUTH FAIR 44 42 93 CALM 30.63R BERLIN FAIR 43 38 82 CALM 30.60R WHITEFIELD MOCLDY 49 41 74 CALM 30.58S JAFFREY CLOUDY 48 42 80 CALM 30.62R KEENE CLOUDY N/A N/A N/A CALM 30.61R LEBANON CLOUDY 52 39 61 SE10G18 30.59R MT WASHINGTON MOCLDY 39 30 70 SW9 N/A $$ VTZ005-007-008-250200- VERMONT CITY SKY/WX TMP DP RH WIND PRES REMARKS ST JOHNSBURY N/A 45 44 97 MISG 30.57S MONTPELIER FAIR 46 43 89 CALM 30.60S BURLINGTON MOCLDY 55 44 66 SE10 30.52S $$ MAZ007-012-024-CTZ003-RIZ002-NYZ038-NYZ072-250200- SOUTHERN NEW ENGLAND AND NY CITY SKY/WX TMP DP RH WIND PRES REMARKS BOSTON MOCLDY 56 43 61 E13 30.62R WORCESTER CLOUDY 48 42 80 NE9G16 30.58R NANTUCKET FAIR 56 48 74 NE15 30.55S PROVIDENCE MOCLDY 53 47 79 NE9 30.59R HARTFORD CLOUDY 53 46 77 NE6 30.57R ALBANY CLOUDY 55 44 66 VRB3 30.54R NEW YORK CITY MOCLDY 62 52 69 E18 30.49S $$ ANZ081-ANZ082-ANZ150-NHZ014-MEZ023>029-250200- COASTAL MARINE OBSERVATIONS STATION/POSITION TIME TEMP WIND PRES WAVE AIR SEA DIR/SP/G HT/PER (UTC) (F) (DEG/KT/KT) (MB) (FT/S) MOUNT DESERT ROC 0000 51 20/ 6/ 8 1038.5R MATINICUS ROCK 0000 51 80/ 8/ 9 1038.0R ISLE OF SHOALS 0000 53 70/ 14/ 15 1036.5R JEFFREYS LEDGE 0006 62 N/A 6/ 8 $$ .............KEY.............. WCI - WIND CHILL TC - TEMPERATURE IN CELSIUS VSB - VISIBILITY IN MILES HX - HEAT INDEX FAIR- INDICATES FEW OR NO CLOUDS BELOW 12,000 FT, WITH NO SIGNIFICANT WEATHER AND/OR OBSTRUCTIONS TO VISIBILITY.

USA.gov is the U.S. government's official web portal to all federal, state and local government web resources and services.